Tracking 19490 objects as of 24-Jan-2019
HD Live streaming from Space Station
objects crossing your sky now

FENGYUN 1C DEB

Track FENGYUN 1C DEB now!
10-day predictions


NORAD ID: 35191
Int'l Code: 1999-025DNX
Perigee: 860.0 km
Apogee: 1,011.9 km
Inclination: 99.0 °
Period: 103.6 minutes
Semi major axis: 7306 km
RCS: 0.0133 m2 (small)
Launch date: May 10, 1999
Source: People's Republic of China (PRC)
Launch site: Taiyaun Space Center, China (TSC)

Note: This is SATELLITE DEBRIS
aabbcc
Your satellite tracking list
Your tracking list is empty




NASA's NSSDC Master Catalog

Two Line Element Set (TLE):
1 35191U 99025DNX 19023.28831368 +.00000002 +00000-0 +34875-4 0  9991
2 35191 099.0420 059.5661 0103971 213.8143 145.6357 13.89954706529470
Source of the keplerian elements: AFSPC